Вернуться в каталог

CZ-4C DEB

АктивенSSO
NORAD 42671·DEBRIS·🇨🇳 China

Запущен Nov 26, 2015 с Taiyuan Satellite Launch Center

Loading…

Ближайшие Пролёты (ближайшие 24 часа)

TLE

СвежийSource: Space-Track

Эпоха: Sep 14, 2026, 09:51 UTC

1 42671U 15069D   26257.41097879  .00003287  00000-0  41581-3 0  9990
2 42671  97.7751 115.5501 0112236  82.2685 279.1253 14.78103025569675

Отслеживайте CZ-4C DEB в реальном времени с AllMySat

Download on the App Store